Location: D�nning
(49.2479°N, 12.8491°E)
Time: 23:23:56
(UTC+00:00)

Cosmos 1833 Rocket - Pass Details

Date: 18 September 2020
Orbit: 831 x 841 km, 71.0° (Epoch: 31 October)

Event Time Altitude Azimuth Distance (km) Brightness Sun altitude
Rises 19:59:50 0° 333° (NNW) 3,407 6.9 -25.9°
Reaches altitude 10° 20:02:21 10° 338° (NNW) 2,469 5.9 -26.2°
Enters shadow 20:07:47 55° 51° (NE) 1,006 2.9 -26.9°
